Lid_Strength_Index
6 6 6 7 9 7 9 9 10 9 7 6 5 5 4 4 4 4 3 3 3 2 2 2 2 2 1 1 1 1 1 1
7 6 6 6 6 9 9 12 12 10 9 9 7 6 5 4 4 3 3 3 3 3 2 2 2 1 1 1 1 1 1 1
6 8 8 8 8 7 7 9 11 12 10 6 6 5 5 4 4 3 3 3 3 2 2 2 1 1 1 1 1 1 1 1
8 7 6 6 7 7 10 10 9 9 9 5 5 4 4 4 3 3 3 2 2 2 2 2 2 2 1 1 1 1 1 1
10 7 7 8 7 7 7 7 9 10 9 4 4 4 4 4 3 3 3 2 2 2 2 2 2 2 2 1 1 1 1 1
11 9 7 9 8 7 7 9 9 9 8 6 5 5 4 4 3 3 3 2 2 2 2 2 2 2 2 1 1 1 1 1
8 7 7 8 8 8 8 7 9 8 8 6 5 5 4 3 3 3 3 3 2 2 2 1 2 2 2 1 1 1 1 1
10 7 8 9 7 8 7 8 7 7 7 5 4 4 4 3 3 4 4 3 2 2 2 2 2 2 2 2 1 1 1 1
12 9 9 11 8 8 7 6 7 8 6 4 5 4 4 4 3 3 3 3 3 3 2 1 1 1 2 1 1 1 1 1
11 10 15 8 6 6 7 6 6 6 5 5 4 4 3 3 3 3 2 2 2 2 2 1 1 1 1 1 1 1 2 2
12 12 10 8 7 7 8 8 5 6 5 5 4 4 4 3 2 2 2 2 2 1 1 1 1 1 1 1 1 2 2 2
11 13 14 8 6 6 6 10 5 5 5 5 4 7 5 2 2 2 2 2 2 1 1 1 1 1 1 1 2 2 2 2
13 13 10 6 5 5 10 11 6 5 5 5 6 5 4 3 3 2 2 2 2 1 2 1 1 1 1 1 2 1 1 1
12 13 13 6 7 8 6 5 5 5 5 5 4 4 4 3 3 3 3 2 2 2 2 1 1 1 1 2 1 1 1 1
10 11 7 6 6 6 5 6 5 5 5 4 4 4 3 3 3 3 3 3 2 2 2 1 1 0 2 2 1 1 1 2
9 8 8 7 6 6 6 6 5 5 5 5 6 5 4 3 3 3 3 3 2 2 2 2 1 1 1 1 1 1 2 2
8 7 7 7 6 6 6 6 6 5 5 5 4 4 3 3 3 3 3 3 2 2 2 2 1 1 1 1 1 2 2 2
9 6 6 6 5 5 6 6 5 5 5 4 4 4 3 3 2 3 3 3 3 2 3 3 2 2 2 1 1 1 2 2
7 5 5 5 5 5 6 6 5 5 5 5 5 4 4 3 2 4 3 3 3 3 2 3 3 3 2 1 1 1 2 2